Location: Central Falls
(41.8900°N, 71.3929°W)
Time: 15:28:18
(UTC+00:00)

Vanguard 1 - Pass Details

Date: 09 December 2023
Orbit: 653 x 3826 km, 34.3° (Epoch: 24 February)

Event Time Altitude Azimuth Distance (km) Brightness Sun altitude
Rises 00:32:35 0° 266° (W) 6,034 15.1 -36.1°
Reaches altitude 10° 00:35:56 10° 264° (W) 5,362 14.5 -36.7°
Maximum altitude 00:53:35 68° 187° (S) 3,761 12.7 -40.0°
Enters shadow 00:59:44 55° 135° (SE) 4,218 12.8 -41.1°
Drops below altitude 10° 01:16:54 10° 111° (ESE) 6,787 - -44.3°
Sets 01:21:51 0° 109° (ESE) 7,631 - -45.2°
